408  
ASUS45 KREV 281110  
RWRNV  
NEVADA REGIONAL WEATHER ROUNDUP  
NATIONAL WEATHER SERVICE RENO NV  
400 AM PDT TUE MAR 28 2017  
 
NOTE: "FAIR" INDICATES FEW OR NO CLOUDS BELOW 12,000 FEET WITH NO  
SIGNIFICANT WEATHER AND/OR S TO VISIBILITY
.  
 
NVZ001-003-004-281200-  
WESTERN NEVADA  
 
CITY SKY/WX TMP DP RH WIND PRES REMARKS
 
RENO PTCLDY 35 26 69 CALM 30.24F  
CARSON CITY FAIR 32 23 69 CALM 30.24F  
MINDEN FAIR 27 21 80 CALM 30.24F  
FALLON CLEAR 29 20 69 W5 30.22F  
LOVELOCK CLEAR 27 22 81 NE5 30.24S  
HAWTHORNE CLEAR 36 21 55 W5 30.22F  

 
 
NVZ002-CAZ072-073-281200-  
NORTHERN AND CENTRAL SIERRA  
 
CITY SKY/WX TMP DP RH WIND PRES REMARKS
 
S. LAKE TAHOE PTCLDY 27 23 85 S3 30.20F  
TRUCKEE CLEAR 23 21 93 SW3 30.22F  
SQUAW VLY 8000 NOT AVBL  
MAMMOTH LAKES FAIR 25 16 68 W9 30.21S  
BRIDGEPORT N/A 23 16 74 CALM 30.19F  

 
 
NVZ030-031-036-281200-  
NORTHERN NEVADA  
 
CITY SKY/WX TMP DP RH WIND PRES REMARKS
 
ELKO CLEAR 28 23 81 CALM 30.20R  
WINNEMUCCA CLEAR 23 22 96 S7 30.24S  
WENDOVER CLEAR 40 22 48 NW25 30.10R  

 
 
NVZ035-037-281200-  
CENTRAL NEVADA  
 
CITY SKY/WX TMP DP RH WIND PRES REMARKS
 
ELY PTCLDY 27 22 81 NW9 30.12S  
EUREKA N/A 28 21 75 N6 30.18S  

 
 
NVZ013-014-281200-  
SOUTH CENTRAL NEVADA  
 
CITY SKY/WX TMP DP RH WIND PRES REMARKS
 
TONOPAH CLEAR 34 22 61 N3 30.17F  

 
 
NVZ017-020-022-281200-  
SOUTHERN NEVADA  
 
CITY SKY/WX TMP DP RH WIND PRES REMARKS
 
LAS VEGAS PTCLDY 56 21 25 NW18G32 29.99S  
N. LAS VEGAS CLEAR 55 23 28 N20G31 30.00R  
NELLIS AFB CLEAR 55 25 31 W16G23 30.00S  
HENDERSON CLEAR 54 23 30 N14 30.03S  
MERCURY CLEAR 47 23 38 NE14 30.08F  

 
 
 
CLICK HERE TO GO TO PREVIOUS BULLETINS.

The Nexlab NV Page Main Text Page